[[{"header":{"parameterUnit":"m.s-1","parameterCategory":2,"la1":30.2991,"la2":30.254,"lo1":-89.0895,"lo2":-89.0444,"dy":0.0017,"dx":0.0017,"nx":28,"ny":28,"refTime":"2023-08-23T21:00:00:Z","depth":"0","parameterNumber":2,"parameterNumberName":"U-component_of_CURRENTS"},"data":[0,0,0,0,0,0,0,0,0,0,0,0,0,0,0,0,0,0,0,0,0,0,0,0,0,0,0,0,0,0,0,0,0,0,0,0,0,0,0,0,0,0,0,0,0,0,0,0,0,0,0,0,0,0,0,0,0,0,-0.248,-0.2482,0,-0.2623,-0.2624,-0.2625,-0.2554,-0.255,-0.2547,-0.2544,-0.2443,-0.2443,-0.2443,0,0,0,0,0,0,0,0,0,0,0,0,0,-0.2206,-0.221,-0.248,-0.2482,-0.2484,-0.2623,-0.2624,-0.2626,-0.2554,-0.255,-0.2546,-0.2542,-0.2443,-0.2443,-0.2443,0,0,0,0,0,0,0,0,0,0,0,0,0,-0.233,-0.2212,-0.2479,-0.2469,-0.247,-0.2623,-0.2624,-0.2626,-0.2555,-0.255,-0.2545,-0.254,-0.2442,-0.2443,-0.2443,-0.2545,0,0,-0.2445,-0.2445,0,0,0,0,0,0,0,0,-0.2323,-0.2339,-0.2468,-0.247,-0.2471,-0.257,-0.2491,-0.2589,-0.2556,-0.2517,-0.2544,-0.2538,-0.247,-0.2468,-0.2502,-0.254,-0.2536,-0.2445,-0.2445,-0.2446,-0.2446,0,0,0,0,0,0,0,-0.2314,-0.2333,-0.2531,-0.2471,-0.2473,-0.2479,-0.249,-0.251,-0.2511,-0.252,-0.2517,-0.2542,-0.2467,-0.2502,-0.2498,-0.2535,-0.2445,-0.2446,-0.2446,-0.2446,-0.266,-0.2665,0,0,0,0,0,0,-0.231,-0.2326,-0.2527,-0.2536,-0.2389,-0.2488,-0.25,-0.2539,-0.2516,-0.2511,-0.2547,-0.2539,-0.2503,-0.2498,-0.2494,-0.2544,-0.2446,-0.2446,-0.2446,-0.2655,-0.2661,-0.2667,0,0,0,0,0,0,-0.2304,-0.2328,-0.2521,-0.2436,-0.2462,-0.2498,-0.2543,-0.2545,-0.2562,-0.2539,-0.2527,-0.2559,-0.2499,-0.2493,-0.2544,-0.2541,-0.2446,-0.2447,-0.2649,-0.2657,-0.2664,-0.2688,0,0,0,0,0,0,-0.2296,-0.2325,-0.2353,-0.2437,-0.2467,-0.2619,-0.2548,-0.2551,-0.2589,-0.258,-0.2548,-0.2534,-0.2495,-0.2544,-0.2545,-0.254,-0.2447,-0.2642,-0.2652,-0.2662,-0.268,-0.2696,-0.2709,0,0,0,0,0,-0.2286,-0.2356,-0.2354,-0.2379,-0.2505,-0.2623,-0.2639,-0.2643,-0.2595,-0.2633,-0.2625,-0.2534,-0.2607,-0.255,-0.2549,-0.2544,-0.2637,-0.2649,-0.2661,-0.2674,-0.2693,-0.2709,0,0,0,0,0,0,-0.2255,-0.236,-0.2357,-0.2454,-0.2531,-0.2612,-0.2659,-0.2657,-0.2688,-0.2665,-0.2612,-0.2604,-0.2645,-0.2636,-0.2574,-0.2653,-0.2605,-0.2617,-0.2615,-0.2633,-0.2647,-0.2555,-0.2448,0,0,0,0,0,-0.2266,-0.2336,-0.2432,-0.2506,-0.2552,-0.2603,-0.2648,-0.2659,-0.2702,-0.2708,-0.2692,-0.2692,-0.2709,-0.2698,-0.2727,-0.2774,-0.2695,-0.278,-0.2794,-0.2805,-0.2742,-0.2659,-0.2655,-0.2707,-0.2707,-0.2706,0,0,-0.227,-0.2341,-0.2375,-0.2503,-0.2559,-0.2637,-0.2617,-0.2704,-0.2731,-0.2695,-0.2729,-0.2747,-0.2745,-0.2793,-0.2808,-0.2767,-0.2771,-0.282,-0.2828,-0.2758,-0.2671,-0.2663,-0.2657,-0.2715,-0.2713,-0.2712,0,0,-0.2332,-0.2384,-0.2465,-0.2536,-0.2641,-0.2677,-0.2701,-0.2792,-0.279,-0.2867,-0.2833,-0.2847,-0.2904,-0.2872,-0.2866,-0.2989,-0.2863,-0.3025,-0.2985,-0.2908,-0.2898,-0.2889,-0.2832,-0.2817,-0.3011,-0.3011,-0.3011,0,-0.2322,-0.2429,-0.2507,-0.2602,-0.2632,-0.2689,-0.2749,-0.2799,-0.2882,-0.2859,-0.2879,-0.2914,-0.2919,-0.2898,-0.2947,-0.2998,-0.2948,-0.2899,-0.291,-0.2899,-0.2889,-0.2832,-0.2815,-0.3014,-0.3014,-0.3013,-0.3013,0,-0.2449,-0.2513,-0.2573,-0.268,-0.2737,-0.2808,-0.2871,-0.291,-0.2913,-0.2922,-0.2929,-0.2966,-0.2949,-0.299,-0.2998,-0.2946,-0.2937,-0.294,-0.2828,-0.2882,-0.2824,-0.2805,-0.3018,-0.3017,-0.3016,-0.3015,0,0,-0.2441,-0.2615,-0.2625,-0.2646,-0.2761,-0.2812,-0.2862,-0.2889,-0.2868,-0.2936,-0.2882,-0.2944,-0.2923,-0.2919,-0.2934,-0.2874,-0.2802,-0.2874,-0.2869,-0.2748,-0.2634,-0.2578,-0.2552,-0.2794,-0.279,-0.2787,-0.2637,0,-0.2483,-0.2622,-0.2696,-0.2763,-0.2813,-0.2846,-0.2873,-0.2896,-0.2908,-0.2895,-0.2873,-0.2871,-0.291,-0.2903,-0.285,-0.2821,-0.2746,-0.2841,-0.2658,-0.2652,-0.2535,-0.2525,-0.2434,-0.2286,-0.2618,-0.2615,-0.2612,0,-0.2559,-0.2623,-0.2701,-0.2739,-0.276,-0.28,-0.2776,-0.2822,-0.2812,-0.2813,-0.2781,-0.2784,-0.2726,-0.2763,-0.2643,-0.2703,-0.2651,-0.262,-0.2614,-0.251,-0.2557,-0.2285,-0.2238,-0.2232,-0.2582,-0.2585,-0.2587,0,-0.2482,-0.2602,-0.263,-0.266,-0.2744,-0.2732,-0.2757,-0.2768,-0.2764,-0.2749,-0.272,-0.2673,-0.263,-0.2564,-0.253,-0.2573,-0.2379,-0.2433,-0.2319,-0.2317,-0.2169,-0.2158,-0.2012,-0.2289,-0.2289,-0.2289,-0.229,0,-0.2482,-0.2496,-0.2591,-0.2613,-0.2591,-0.2669,-0.2643,-0.2667,-0.2671,-0.2621,-0.266,-0.2592,-0.2569,-0.2483,-0.2463,-0.2321,-0.2318,-0.2261,-0.2247,-0.2192,-0.2186,-0.2117,-0.217,-0.2284,-0.2285,-0.2286,-0.2287,0,-0.24,-0.2487,-0.2505,-0.2563,-0.257,-0.255,-0.2584,-0.2557,-0.2594,-0.2527,-0.2511,-0.2489,-0.2379,-0.2351,-0.2232,-0.2207,-0.2066,-0.2055,-0.2006,-0.1987,-0.189,-0.195,-0.1755,-0.1706,-0.1892,-0.1889,-0.1887,0,-0.2368,-0.2383,-0.2435,-0.242,-0.2441,-0.244,-0.2422,-0.2494,-0.2467,-0.2443,-0.2372,-0.2287,-0.2186,-0.2027,-0.1958,-0.1862,-0.1912,-0.1739,-0.1792,-0.1814,-0.1871,-0.193,-0.1909,-0.1639,-0.1635,-0.1631,-0.1629,0,-0.2249,-0.2276,-0.2284,-0.2275,-0.2258,-0.2256,-0.2246,-0.2227,-0.227,-0.2223,-0.2126,-0.206,-0.1911,-0.1769,-0.1677,-0.1627,-0.1711,-0.1665,-0.1672,-0.1618,-0.1678,-0.165,-0.1847,-0.1598,-0.1601,-0.1604,-0.1605,-0.1606,-0.2107,-0.2085,-0.2103,-0.2071,-0.2071,-0.2044,-0.1995,-0.1995,-0.195,-0.1859,-0.1874,-0.1742,-0.1658,-0.1507,-0.1452,-0.1356,-0.1445,-0.1346,-0.1406,-0.1455,-0.1421,-0.156,-0.1315,-0.1316,-0.1318,-0.1319,-0.1319,0,-0.191,-0.1912,-0.1885,-0.1865,-0.1811,-0.1869,-0.1835,-0.1769,-0.1667,-0.1619,-0.1534,-0.1427,-0.131,-0.1276,-0.1193,-0.1137,-0.1131,-0.1131,-0.119,-0.1173,-0.1249,-0.1252,-0.0999,-0.0999,-0.0999,-0.0999,-0.0999,-0.0999,-0.1802,-0.1723,-0.1729,-0.1598,-0.1585,-0.1477,-0.1436,-0.1377,-0.1331,-0.1186,-0.1123,-0.1067,-0.1096,-0.1217,-0.1144,-0.108,-0.1087,-0.1035,-0.1085,-0.1169,-0.1195,-0.122,-0.1231,-0.0978,-0.0978,-0.0944,-0.0944,-0.0944]},{"header":{"parameterUnit":"m.s-1","parameterCategory":2,"la1":30.2991,"la2":30.254,"lo1":-89.0895,"lo2":-89.0444,"dy":0.0017,"dx":0.0017,"nx":28,"ny":28,"refTime":"2023-08-23T21:00:00:Z","depth":"0","parameterNumber":3,"parameterNumberName":"V-component_of_CURRENTS"},"data":[0,0,0,0,0,0,0,0,0,0,0,0,0,0,0,0,0,0,0,0,0,0,0,0,0,0,0,0,0,0,0,0,0,0,0,0,0,0,0,0,0,0,0,0,0,0,0,0,0,0,0,0,0,0,0,0,0,0,0.0542,0.0542,0,0.0605,0.0605,0.0606,0.0681,0.0682,0.0683,0.0684,0.0796,0.0798,0.08,0,0,0,0,0,0,0,0,0,0,0,0,0,0.0597,0.0596,0.0542,0.0542,0.0543,0.0604,0.0606,0.0607,0.0681,0.0682,0.0684,0.0685,0.0795,0.0797,0.08,0,0,0,0,0,0,0,0,0,0,0,0,0,0.061,0.0595,0.0542,0.0586,0.059,0.0604,0.0606,0.0607,0.0681,0.0682,0.0684,0.0685,0.0794,0.0797,0.08,0.0792,0,0,0.081,0.0811,0,0,0,0,0,0,0,0,0.0609,0.0608,0.0579,0.0583,0.0588,0.0634,0.0666,0.067,0.0681,0.0649,0.0684,0.0686,0.0743,0.0751,0.0762,0.0797,0.0802,0.081,0.0812,0.0813,0.0814,0,0,0,0,0,0,0,0.0608,0.0607,0.0569,0.0579,0.0585,0.064,0.0643,0.0668,0.0691,0.0652,0.0657,0.066,0.0747,0.0759,0.0766,0.0803,0.081,0.0813,0.0815,0.0816,0.0862,0.0861,0,0,0,0,0,0,0.0587,0.0605,0.0567,0.0571,0.0599,0.0637,0.064,0.062,0.0689,0.07,0.0658,0.0663,0.0753,0.0762,0.077,0.0771,0.0813,0.0816,0.0818,0.0862,0.0861,0.0861,0,0,0,0,0,0,0.0588,0.0582,0.0565,0.0589,0.0591,0.0634,0.0611,0.062,0.0629,0.0693,0.0706,0.0656,0.0755,0.0766,0.079,0.0776,0.0818,0.0821,0.0863,0.0862,0.0861,0.0769,0,0,0,0,0,0,0.0589,0.0581,0.0552,0.0586,0.0588,0.0547,0.061,0.0621,0.0627,0.0634,0.0695,0.0708,0.0757,0.0784,0.0793,0.0781,0.0823,0.0864,0.0863,0.0861,0.0773,0.0765,0.0758,0,0,0,0,0,0.059,0.0526,0.055,0.0546,0.0548,0.0544,0.0549,0.0589,0.0625,0.0607,0.0666,0.0705,0.0783,0.0786,0.0796,0.0785,0.0864,0.0863,0.0861,0.0776,0.0766,0.0758,0,0,0,0,0,0,0.0523,0.0529,0.0556,0.0495,0.0513,0.0555,0.0531,0.0575,0.0607,0.0613,0.0693,0.0708,0.0721,0.0763,0.0765,0.0795,0.0831,0.0831,0.0763,0.0754,0.0747,0.0739,0.0826,0,0,0,0,0,0.0497,0.0455,0.0486,0.0436,0.0436,0.0488,0.049,0.0521,0.0557,0.0572,0.0627,0.0682,0.0721,0.0745,0.0777,0.0791,0.0821,0.0792,0.0785,0.0778,0.0778,0.0831,0.0829,0.0856,0.0856,0.0856,0,0,0.0456,0.0454,0.043,0.042,0.0435,0.0426,0.0491,0.0476,0.0484,0.0578,0.0595,0.0647,0.0716,0.0734,0.0745,0.077,0.0774,0.0776,0.077,0.0774,0.083,0.0827,0.0825,0.0855,0.0855,0.0855,0,0,0.0358,0.0351,0.0294,0.0305,0.0317,0.0353,0.0346,0.0388,0.0416,0.0435,0.0514,0.0567,0.0612,0.0679,0.0715,0.0686,0.0725,0.0686,0.0654,0.0704,0.0703,0.0702,0.0684,0.0682,0.0693,0.0693,0.0693,0,0.0311,0.0257,0.0277,0.0243,0.0249,0.0317,0.0287,0.0317,0.0371,0.0403,0.0421,0.0536,0.0592,0.0655,0.0649,0.0671,0.0679,0.068,0.0694,0.0695,0.0695,0.0678,0.0677,0.0689,0.0689,0.069,0.069,0,0.0192,0.0163,0.0125,0.0117,0.0122,0.0098,0.0155,0.0175,0.0226,0.0285,0.0342,0.0429,0.0511,0.0532,0.0582,0.0623,0.0615,0.0669,0.0714,0.0687,0.067,0.0671,0.0682,0.0684,0.0685,0.0686,0,0,0.0059,0.0046,0.0036,0.0041,0.0061,0.0059,0.0065,0.011,0.0145,0.02,0.025,0.0334,0.0406,0.0453,0.0532,0.0584,0.0584,0.0619,0.0624,0.0595,0.0635,0.0679,0.0684,0.0638,0.0639,0.064,0.0601,0,-0.003,-0.0105,-0.0083,-0.0118,-0.0138,-0.0063,-0.0049,0.0007,0.0073,0.0136,0.0242,0.0309,0.0369,0.0417,0.0474,0.0568,0.0591,0.0585,0.0673,0.0674,0.0714,0.0691,0.0729,0.0704,0.0603,0.0603,0.0603,0,-0.0141,-0.0169,-0.0231,-0.0194,-0.0196,-0.02,-0.0135,-0.0109,-0.0002,0.0053,0.0142,0.0232,0.0324,0.0379,0.0495,0.0484,0.0541,0.0603,0.0605,0.0687,0.0724,0.0728,0.0711,0.0852,0.0606,0.0606,0.0605,0,-0.0223,-0.0256,-0.0299,-0.0297,-0.0263,-0.026,-0.0228,-0.0138,-0.0091,0.0011,0.0053,0.0172,0.0234,0.0333,0.0464,0.0473,0.0578,0.0615,0.0692,0.0692,0.0767,0.0774,0.0902,0.068,0.068,0.068,0.068,0,-0.0313,-0.0339,-0.034,-0.0361,-0.0374,-0.0329,-0.0303,-0.0247,-0.016,-0.0105,0.001,0.0063,0.0229,0.0322,0.0428,0.0557,0.0546,0.0674,0.0702,0.0729,0.0733,0.0897,0.0952,0.0679,0.0679,0.0679,0.0679,0,-0.0384,-0.0393,-0.0425,-0.042,-0.0412,-0.0419,-0.0352,-0.0311,-0.0245,-0.0177,-0.0149,-0.0025,0.0093,0.0251,0.0411,0.051,0.0724,0.0684,0.0671,0.07,0.0914,0.0961,0.1087,0.1175,0.0745,0.0746,0.0747,0,-0.0423,-0.0457,-0.0471,-0.0467,-0.0465,-0.0455,-0.0422,-0.0358,-0.0314,-0.0229,-0.0203,-0.0088,0.0017,0.0246,0.0457,0.0637,0.0759,0.0766,0.0822,0.0929,0.1002,0.1027,0.1094,0.0844,0.0846,0.0847,0.0849,0,-0.0476,-0.0485,-0.0504,-0.0502,-0.0492,-0.0475,-0.0444,-0.0439,-0.036,-0.0323,-0.0267,-0.019,0.0049,0.0294,0.0551,0.0664,0.0885,0.08,0.0941,0.1116,0.1124,0.122,0.0812,0.0861,0.0859,0.0859,0.0858,0.0857,-0.0489,-0.051,-0.0516,-0.0504,-0.0497,-0.0492,-0.0486,-0.0468,-0.0445,-0.0362,-0.0315,-0.0137,0.0199,0.0576,0.0717,0.1035,0.0991,0.1129,0.1172,0.1184,0.1308,0.0896,0.0977,0.0977,0.0976,0.0976,0.0976,0,-0.0476,-0.0488,-0.049,-0.0487,-0.0477,-0.0473,-0.0472,-0.0466,-0.0474,-0.033,-0.0256,0.0163,0.0488,0.0831,0.1234,0.1407,0.1452,0.1481,0.154,0.1591,0.1256,0.1305,0.1428,0.1428,0.1428,0.1427,0.1427,0.1427,-0.0459,-0.046,-0.0459,-0.0445,-0.0447,-0.0444,-0.0457,-0.0478,-0.0389,-0.0151,0.0136,0.037,0.0805,0.1346,0.1721,0.1755,0.1926,0.1884,0.1974,0.1761,0.1731,0.1704,0.1767,0.1984,0.1985,0.2311,0.2314,0.2316]}],[{"header":{"parameterUnit":"m.s-1","parameterCategory":2,"la1":30.2991,"la2":30.254,"lo1":-89.0895,"lo2":-89.0444,"dy":0.0017,"dx":0.0017,"nx":28,"ny":28,"refTime":"2023-08-23T21:00:00:Z","depth":"2","parameterNumber":2,"parameterNumberName":"U-component_of_CURRENTS"},"data":[0,0,0,0,0,0,0,0,0,0,0,0,0,0,0,0,0,0,0,0,0,0,0,0,0,0,0,0,0,0,0,0,0,0,0,0,0,0,0,0,0,0,0,0,0,0,0,0,0,0,0,0,0,0,0,0,0,0,-0.2344,-0.2346,0,-0.2648,-0.2653,-0.2658,-0.2826,-0.2825,-0.2824,-0.2823,-0.2698,-0.2696,-0.2693,0,0,0,0,0,0,0,0,0,0,0,0,0,-0.2202,-0.2203,-0.2344,-0.2346,-0.2349,-0.2648,-0.2653,-0.2659,-0.2826,-0.2825,-0.2823,-0.2822,-0.2699,-0.2696,-0.2693,0,0,0,0,0,0,0,0,0,0,0,0,0,-0.2376,-0.2204,-0.2344,-0.2455,-0.2467,-0.2646,-0.2654,-0.2661,-0.2826,-0.2825,-0.2823,-0.2821,-0.27,-0.2696,-0.2693,-0.2705,0,0,-0.2682,-0.2681,0,0,0,0,0,0,0,0,-0.2366,-0.2383,-0.2437,-0.2448,-0.2461,-0.2682,-0.2557,-0.2648,-0.2827,-0.2708,-0.2823,-0.2821,-0.2643,-0.2644,-0.2736,-0.2699,-0.2694,-0.2682,-0.268,-0.2679,-0.2678,0,0,0,0,0,0,0,-0.2353,-0.2373,-0.2482,-0.2439,-0.2454,-0.259,-0.2612,-0.258,-0.2686,-0.2718,-0.2727,-0.2734,-0.2649,-0.2739,-0.2732,-0.2692,-0.2682,-0.2679,-0.2677,-0.2676,-0.2742,-0.2746,0,0,0,0,0,0,-0.2268,-0.236,-0.2472,-0.2489,-0.2389,-0.2591,-0.2617,-0.2627,-0.2696,-0.2704,-0.2735,-0.274,-0.2746,-0.2736,-0.2727,-0.2741,-0.2679,-0.2675,-0.2673,-0.2738,-0.2743,-0.2747,0,0,0,0,0,0,-0.2264,-0.2275,-0.246,-0.2418,-0.2448,-0.2591,-0.2604,-0.2633,-0.2725,-0.2711,-0.2713,-0.2792,-0.2744,-0.2732,-0.2728,-0.2735,-0.2674,-0.2671,-0.2734,-0.274,-0.2745,-0.2765,0,0,0,0,0,0,-0.2258,-0.2272,-0.2294,-0.2412,-0.2447,-0.2573,-0.2605,-0.264,-0.2723,-0.2734,-0.2759,-0.2749,-0.2742,-0.2734,-0.2725,-0.2729,-0.2668,-0.2729,-0.2736,-0.2743,-0.2759,-0.2771,-0.278,0,0,0,0,0,-0.2253,-0.2277,-0.2294,-0.2309,-0.2458,-0.2573,-0.2608,-0.2716,-0.2726,-0.279,-0.2806,-0.2748,-0.2774,-0.2734,-0.2722,-0.2725,-0.2725,-0.2734,-0.2743,-0.2755,-0.2768,-0.278,0,0,0,0,0,0,-0.2258,-0.2298,-0.2319,-0.2363,-0.2456,-0.2594,-0.2671,-0.2716,-0.2799,-0.2798,-0.2777,-0.2769,-0.2786,-0.2765,-0.2721,-0.2781,-0.2747,-0.2754,-0.2761,-0.2773,-0.2783,-0.2693,-0.2665,0,0,0,0,0,-0.2252,-0.2269,-0.2345,-0.2391,-0.2431,-0.2549,-0.2617,-0.2679,-0.2744,-0.2787,-0.2799,-0.2812,-0.2823,-0.2799,-0.2827,-0.2819,-0.2744,-0.2829,-0.2839,-0.2847,-0.2777,-0.2706,-0.2699,-0.2775,-0.2775,-0.2775,0,0,-0.2255,-0.2291,-0.2298,-0.2391,-0.2482,-0.2535,-0.2594,-0.2696,-0.2729,-0.2741,-0.2806,-0.2848,-0.2841,-0.2877,-0.2878,-0.284,-0.2803,-0.2858,-0.2864,-0.2787,-0.2713,-0.2704,-0.2696,-0.2781,-0.278,-0.2779,0,0,-0.2262,-0.2316,-0.2324,-0.2393,-0.2495,-0.2563,-0.2573,-0.2706,-0.2765,-0.283,-0.2854,-0.289,-0.2921,-0.2923,-0.2915,-0.2987,-0.288,-0.3019,-0.2952,-0.2887,-0.2876,-0.2866,-0.2798,-0.2782,-0.2996,-0.2996,-0.2996,0,-0.2264,-0.2288,-0.2359,-0.2397,-0.2449,-0.2549,-0.2587,-0.2661,-0.2776,-0.2787,-0.2844,-0.2913,-0.2936,-0.2896,-0.2959,-0.2996,-0.2934,-0.2893,-0.2888,-0.2876,-0.2864,-0.2797,-0.2778,-0.2998,-0.2998,-0.2998,-0.2998,0,-0.2268,-0.2302,-0.2332,-0.2382,-0.2458,-0.2523,-0.2596,-0.2673,-0.2746,-0.2786,-0.2826,-0.2898,-0.2914,-0.2964,-0.2977,-0.2922,-0.29,-0.2923,-0.2826,-0.2855,-0.2787,-0.2767,-0.3001,-0.3,-0.3,-0.2999,0,0,-0.2207,-0.2302,-0.231,-0.2341,-0.2457,-0.2515,-0.2568,-0.2628,-0.2628,-0.2736,-0.2737,-0.281,-0.2838,-0.2833,-0.2869,-0.2815,-0.2749,-0.2824,-0.282,-0.2703,-0.2576,-0.2532,-0.2506,-0.2752,-0.2748,-0.2745,-0.2571,0,-0.2189,-0.2229,-0.2292,-0.2347,-0.2381,-0.2488,-0.2528,-0.2587,-0.2648,-0.2681,-0.2708,-0.2739,-0.278,-0.2816,-0.2762,-0.2768,-0.2689,-0.2792,-0.2609,-0.2602,-0.2514,-0.2478,-0.2344,-0.2172,-0.255,-0.2546,-0.2544,0,-0.2144,-0.2194,-0.2228,-0.2324,-0.2352,-0.2395,-0.2478,-0.253,-0.256,-0.2602,-0.2592,-0.2628,-0.2585,-0.2656,-0.253,-0.2586,-0.2558,-0.2545,-0.2538,-0.2447,-0.2517,-0.2204,-0.212,-0.2508,-0.2511,-0.2514,-0.2516,0,-0.2046,-0.2136,-0.2163,-0.2199,-0.232,-0.2363,-0.2438,-0.2493,-0.2514,-0.2536,-0.2536,-0.249,-0.249,-0.2423,-0.2423,-0.2463,-0.228,-0.2347,-0.225,-0.2248,-0.2065,-0.2053,-0.2207,-0.2208,-0.2208,-0.2208,-0.2209,0,-0.1973,-0.1999,-0.212,-0.214,-0.2203,-0.2307,-0.2335,-0.2413,-0.2446,-0.2412,-0.2471,-0.242,-0.2425,-0.2355,-0.2347,-0.2212,-0.2207,-0.2177,-0.2174,-0.2083,-0.2074,-0.2313,-0.2328,-0.2202,-0.2203,-0.2205,-0.2206,0,-0.1853,-0.1915,-0.197,-0.2105,-0.2153,-0.2205,-0.2308,-0.2292,-0.235,-0.2315,-0.232,-0.2326,-0.223,-0.2214,-0.2126,-0.2099,-0.2015,-0.1973,-0.1869,-0.1856,-0.2042,-0.2061,-0.1811,-0.1808,-0.1805,-0.1802,-0.18,0,-0.1797,-0.1799,-0.1949,-0.1967,-0.2033,-0.2109,-0.2138,-0.2246,-0.2207,-0.2228,-0.2176,-0.213,-0.2051,-0.1913,-0.1858,-0.1765,-0.1881,-0.1611,-0.1667,-0.1965,-0.1989,-0.2013,-0.2036,-0.1451,-0.1447,-0.1443,-0.144,0,-0.1699,-0.1746,-0.1789,-0.1845,-0.1885,-0.1921,-0.1963,-0.1949,-0.2018,-0.1995,-0.1937,-0.1907,-0.1788,-0.1641,-0.1562,-0.1512,-0.1625,-0.1528,-0.1803,-0.16,-0.1618,-0.1647,-0.1681,-0.1405,-0.1408,-0.1411,-0.1413,-0.1414,-0.1617,-0.1617,-0.1647,-0.1691,-0.172,-0.1703,-0.1689,-0.1696,-0.1677,-0.1638,-0.1683,-0.1595,-0.1573,-0.137,-0.1284,-0.1232,-0.1353,-0.1328,-0.1342,-0.136,-0.1376,-0.1391,-0.1136,-0.1138,-0.114,-0.1141,-0.1142,0,-0.149,-0.1475,-0.1483,-0.1496,-0.1452,-0.1539,-0.1524,-0.1466,-0.141,-0.1409,-0.1366,-0.1211,-0.112,-0.1109,-0.096,-0.0939,-0.0951,-0.092,-0.0946,-0.098,-0.101,-0.1013,-0.0674,-0.0673,-0.0671,-0.067,0,0,-0.1395,-0.1336,-0.1336,-0.1221,-0.1228,-0.1144,-0.1126,-0.109,-0.106,-0.0997,-0.0968,-0.1047,-0.1065,-0.0869,-0.0822,-0.0719,-0.0843,-0.0683,-0.1057,-0.1119,-0.1148,-0.124,-0.1281,0,0,0,0,0]},{"header":{"parameterUnit":"m.s-1","parameterCategory":2,"la1":30.2991,"la2":30.254,"lo1":-89.0895,"lo2":-89.0444,"dy":0.0017,"dx":0.0017,"nx":28,"ny":28,"refTime":"2023-08-23T21:00:00:Z","depth":"2","parameterNumber":3,"parameterNumberName":"V-component_of_CURRENTS"},"data":[0,0,0,0,0,0,0,0,0,0,0,0,0,0,0,0,0,0,0,0,0,0,0,0,0,0,0,0,0,0,0,0,0,0,0,0,0,0,0,0,0,0,0,0,0,0,0,0,0,0,0,0,0,0,0,0,0,0,-0.0469,-0.0467,0,-0.0256,-0.0252,-0.0249,-0.0113,-0.0114,-0.0114,-0.0115,0.0029,0.0034,0.0038,0,0,0,0,0,0,0,0,0,0,0,0,0,-0.0552,-0.0551,-0.0469,-0.0467,-0.0466,-0.0256,-0.0252,-0.0248,-0.0113,-0.0114,-0.0114,-0.0115,0.0028,0.0033,0.0038,0,0,0,0,0,0,0,0,0,0,0,0,0,-0.0432,-0.0551,-0.0469,-0.0384,-0.0375,-0.0257,-0.0252,-0.0247,-0.0113,-0.0114,-0.0114,-0.0115,0.0026,0.0033,0.0039,0.0093,0,0,0.0058,0.0061,0,0,0,0,0,0,0,0,-0.044,-0.0428,-0.0398,-0.039,-0.038,-0.0224,-0.0229,-0.0141,-0.0113,-0.0198,-0.0115,-0.0115,-0.007,-0.0056,0.0007,0.01,0.0106,0.0059,0.0063,0.0066,0.0068,0,0,0,0,0,0,0,-0.0448,-0.0435,-0.037,-0.0396,-0.0386,-0.0286,-0.027,-0.0209,-0.0123,-0.019,-0.0184,-0.0182,-0.0064,0.0,0.001,0.0108,0.0059,0.0065,0.0069,0.0071,0.0306,0.0308,0,0,0,0,0,0,-0.0513,-0.0444,-0.0377,-0.0365,-0.0428,-0.0286,-0.0267,-0.0262,-0.0122,-0.0105,-0.0181,-0.0176,-0.001,0.0003,0.0016,0.0107,0.0066,0.0072,0.0075,0.0303,0.0306,0.0309,0,0,0,0,0,0,-0.0515,-0.0508,-0.0386,-0.0411,-0.039,-0.0287,-0.0279,-0.0258,-0.0199,-0.0117,-0.0098,-0.0149,-0.001,0.0007,0.0088,0.0112,0.0075,0.008,0.0301,0.0304,0.0307,0.0275,0,0,0,0,0,0,-0.0518,-0.051,-0.0507,-0.0416,-0.0392,-0.033,-0.028,-0.0253,-0.0203,-0.0194,-0.0083,-0.0069,-0.001,0.0079,0.0095,0.012,0.0085,0.0297,0.0302,0.0306,0.0273,0.0277,0.0281,0,0,0,0,0,-0.0521,-0.0526,-0.0507,-0.0499,-0.0398,-0.0331,-0.0307,-0.0226,-0.0202,-0.0174,-0.0085,-0.0073,0.0118,0.0086,0.0104,0.0132,0.0295,0.0301,0.0306,0.0272,0.0277,0.0281,0,0,0,0,0,0,-0.0547,-0.0511,-0.0489,-0.0478,-0.042,-0.0314,-0.0282,-0.0234,-0.0134,-0.0124,-0.0043,-0.0021,0.007,0.0105,0.0067,0.0217,0.0209,0.0218,0.0177,0.0182,0.0185,0.011,0.0091,0,0,0,0,0,-0.0561,-0.0558,-0.0501,-0.0488,-0.0469,-0.0376,-0.0334,-0.0283,-0.0199,-0.0154,-0.0066,0.0025,0.0112,0.0144,0.0236,0.03,0.0301,0.0333,0.0336,0.0339,0.0294,0.0346,0.0348,0.0326,0.0326,0.0326,0,0,-0.0572,-0.0549,-0.0547,-0.0495,-0.0438,-0.0408,-0.0348,-0.0296,-0.0255,-0.0159,-0.0054,0.0047,0.0138,0.0236,0.0276,0.0259,0.0351,0.0346,0.0347,0.0299,0.0352,0.0353,0.0354,0.033,0.0329,0.0329,0,0,-0.0597,-0.057,-0.0577,-0.0535,-0.0478,-0.0425,-0.0425,-0.0314,-0.0248,-0.0148,-0.0055,0.0057,0.0182,0.027,0.0319,0.0391,0.0382,0.0418,0.0356,0.0409,0.041,0.041,0.0414,0.0415,0.0403,0.0403,0.0403,0,-0.0611,-0.0604,-0.0563,-0.0551,-0.0521,-0.045,-0.0434,-0.0361,-0.0226,-0.0179,-0.0129,0.01,0.02,0.0293,0.0334,0.0397,0.039,0.0327,0.0408,0.0408,0.0409,0.0414,0.0415,0.0402,0.0402,0.0402,0.0402,0,-0.0638,-0.0621,-0.0618,-0.059,-0.0552,-0.0522,-0.0449,-0.0378,-0.0295,-0.0223,-0.0088,0.0077,0.0195,0.0267,0.0321,0.0385,0.0368,0.0416,0.0378,0.0408,0.0413,0.0414,0.04,0.0401,0.0401,0.0401,0,0,-0.0696,-0.065,-0.0646,-0.0626,-0.0565,-0.0536,-0.0483,-0.0411,-0.0373,-0.0232,-0.0158,0.0029,0.0103,0.0163,0.0271,0.0319,0.0362,0.0344,0.0348,0.0314,0.0417,0.0447,0.0452,0.0404,0.0404,0.0404,0.0417,0,-0.0721,-0.0716,-0.068,-0.0656,-0.0642,-0.0564,-0.052,-0.045,-0.0359,-0.0263,-0.0128,-0.0009,0.006,0.0145,0.0197,0.0339,0.0363,0.035,0.0422,0.0422,0.0419,0.0455,0.0434,0.0446,0.0418,0.0418,0.0419,0,-0.0754,-0.0743,-0.0739,-0.0676,-0.0663,-0.0643,-0.0561,-0.0504,-0.0397,-0.0325,-0.0233,-0.0122,-0.0009,0.0069,0.021,0.0183,0.0272,0.0361,0.0365,0.039,0.0456,0.0418,0.045,0.0422,0.0421,0.0421,0.0421,0,-0.0813,-0.0771,-0.0772,-0.0753,-0.069,-0.0662,-0.0614,-0.0527,-0.0477,-0.0367,-0.0319,-0.0199,-0.009,0.0006,0.019,0.0191,0.0332,0.0379,0.0467,0.0468,0.0462,0.0463,0.0448,0.0448,0.0448,0.0448,0.0448,0,-0.0847,-0.0838,-0.0799,-0.0799,-0.0777,-0.0711,-0.0674,-0.0606,-0.0523,-0.048,-0.0362,-0.0289,-0.0102,0.0018,0.0143,0.0299,0.0294,0.0434,0.0478,0.0455,0.0455,0.0445,0.0445,0.0448,0.0448,0.0448,0.0448,0,-0.0903,-0.088,-0.0875,-0.0828,-0.0808,-0.079,-0.0718,-0.0702,-0.0615,-0.0546,-0.0514,-0.0358,-0.0202,-0.0033,0.0172,0.0265,0.0413,0.0469,0.0405,0.0441,0.0508,0.0506,0.054,0.0541,0.0542,0.0543,0.0544,0,-0.0931,-0.0942,-0.0916,-0.0911,-0.0888,-0.0853,-0.0844,-0.076,-0.074,-0.0582,-0.0561,-0.0383,-0.0246,0.0026,0.0233,0.0421,0.0444,0.0501,0.0527,0.048,0.052,0.0516,0.0513,0.0501,0.0501,0.0502,0.0502,0,-0.0981,-0.098,-0.0977,-0.0977,-0.0974,-0.0965,-0.0929,-0.0917,-0.0812,-0.0735,-0.059,-0.0453,-0.0178,0.0061,0.0309,0.0416,0.0467,0.0513,0.0499,0.0491,0.0448,0.0486,0.0483,0.0504,0.0504,0.0504,0.0504,0.0504,-0.1014,-0.1027,-0.1032,-0.1021,-0.1032,-0.1043,-0.1023,-0.0979,-0.0909,-0.0739,-0.062,-0.0394,-0.0166,0.0205,0.0375,0.0523,0.0525,0.0564,0.0561,0.0558,0.0562,0.0525,0.0592,0.0593,0.0593,0.0593,0.0593,0,-0.1034,-0.1052,-0.1065,-0.106,-0.1087,-0.108,-0.1064,-0.1025,-0.0926,-0.0754,-0.0576,-0.03,-0.0024,0.0198,0.0446,0.0593,0.0576,0.0603,0.056,0.0557,0.0554,0.0556,0.0586,0.0586,0.0586,0.0587,0,0,-0.1044,-0.1067,-0.1072,-0.1099,-0.1107,-0.1131,-0.1117,-0.1026,-0.0901,-0.0701,-0.0517,-0.0282,-0.0011,0.0169,0.0353,0.0478,0.047,0.0477,0.0467,0.039,0.0385,0.0516,0.0513,0,0,0,0,0]}],[{"header":{"parameterUnit":"m.s-1","parameterCategory":2,"la1":30.2991,"la2":30.254,"lo1":-89.0895,"lo2":-89.0444,"dy":0.0017,"dx":0.0017,"nx":28,"ny":28,"refTime":"2023-08-23T21:00:00:Z","depth":"4","parameterNumber":2,"parameterNumberName":"U-component_of_CURRENTS"},"data":[0,0,0,0,0,0,0,0,0,0,0,0,0,0,0,0,0,0,0,0,0,0,0,0,0,0,0,0,0,0,0,0,0,0,0,0,0,0,0,0,0,0,0,0,0,0,0,0,0,0,0,0,0,0,0,0,0,0,-0.1126,-0.1126,0,-0.1151,-0.1152,-0.1152,-0.1155,-0.1154,-0.1154,-0.1154,-0.1183,-0.1184,-0.1185,0,0,0,0,0,0,0,0,0,0,0,0,0,-0.1059,-0.106,-0.1126,-0.1127,-0.1127,-0.1151,-0.1152,-0.1152,-0.1155,-0.1154,-0.1154,-0.1154,-0.1183,-0.1184,-0.1185,0,0,0,0,0,0,0,0,0,0,0,0,0,-0.1085,-0.1061,-0.1126,-0.1132,-0.1133,-0.1151,-0.1152,-0.1152,-0.1155,-0.1154,-0.1154,-0.1154,-0.1182,-0.1184,-0.1185,-0.1197,0,0,-0.1189,-0.119,0,0,0,0,0,0,0,0,-0.1084,-0.1088,-0.1131,-0.1132,-0.1133,-0.1151,-0.1139,-0.1168,-0.1155,-0.1145,-0.1154,-0.1154,-0.1174,-0.1176,-0.1179,-0.1198,-0.12,-0.1189,-0.119,-0.1191,-0.1191,0,0,0,0,0,0,0,-0.1082,-0.1086,-0.1135,-0.1131,-0.1133,-0.1127,-0.113,-0.1144,-0.1159,-0.1146,-0.1146,-0.1152,-0.1174,-0.1178,-0.118,-0.12,-0.1189,-0.119,-0.1191,-0.1192,-0.1333,-0.1336,0,0,0,0,0,0,-0.1083,-0.1085,-0.1134,-0.1136,-0.1109,-0.1128,-0.1132,-0.1144,-0.1159,-0.1161,-0.1152,-0.1152,-0.1175,-0.1178,-0.1181,-0.1228,-0.1191,-0.1192,-0.1193,-0.133,-0.1334,-0.1337,0,0,0,0,0,0,-0.1082,-0.1088,-0.1133,-0.1111,-0.1117,-0.113,-0.1143,-0.1145,-0.1163,-0.1164,-0.1166,-0.117,-0.1175,-0.1179,-0.1221,-0.1228,-0.1192,-0.1194,-0.1327,-0.1331,-0.1335,-0.1302,0,0,0,0,0,0,-0.108,-0.1087,-0.1104,-0.1112,-0.1118,-0.1153,-0.1144,-0.1145,-0.1166,-0.1167,-0.118,-0.1182,-0.1175,-0.1219,-0.1222,-0.1229,-0.1195,-0.1323,-0.1329,-0.1334,-0.1299,-0.1305,-0.1309,0,0,0,0,0,-0.1078,-0.1095,-0.1105,-0.1112,-0.1139,-0.1154,-0.1157,-0.1164,-0.1168,-0.118,-0.1201,-0.1182,-0.1257,-0.1222,-0.1225,-0.1232,-0.132,-0.1327,-0.1334,-0.1297,-0.1303,-0.1309,0,0,0,0,0,0,-0.1074,-0.1097,-0.1109,-0.1133,-0.115,-0.1156,-0.1167,-0.1177,-0.1202,-0.1208,-0.1208,-0.1212,-0.1261,-0.1268,-0.1229,-0.1301,-0.129,-0.1298,-0.1262,-0.1268,-0.1273,-0.1317,-0.1196,0,0,0,0,0,-0.1083,-0.1105,-0.1123,-0.1146,-0.1152,-0.1166,-0.1176,-0.1185,-0.1204,-0.1214,-0.1234,-0.1264,-0.129,-0.1294,-0.1331,-0.1352,-0.1363,-0.1371,-0.1376,-0.1379,-0.1425,-0.1433,-0.1441,-0.1359,-0.1359,-0.1359,0,0,-0.1088,-0.1105,-0.1118,-0.1147,-0.1157,-0.1174,-0.1171,-0.1192,-0.122,-0.1214,-0.1268,-0.1289,-0.131,-0.1344,-0.1364,-0.1343,-0.1406,-0.1388,-0.1389,-0.1434,-0.144,-0.1448,-0.1454,-0.1363,-0.1363,-0.1362,0,0,-0.1099,-0.1123,-0.1141,-0.1159,-0.1184,-0.1191,-0.1203,-0.123,-0.1254,-0.1306,-0.1314,-0.1348,-0.1392,-0.1399,-0.1407,-0.147,-0.1446,-0.1481,-0.1512,-0.1517,-0.1522,-0.1527,-0.152,-0.1525,-0.1462,-0.1462,-0.1462,0,-0.1104,-0.1132,-0.1149,-0.117,-0.1185,-0.1202,-0.1221,-0.1249,-0.1296,-0.1327,-0.1332,-0.1419,-0.1423,-0.1453,-0.1479,-0.1476,-0.1477,-0.1465,-0.1517,-0.1523,-0.1528,-0.152,-0.1526,-0.1461,-0.1461,-0.1461,-0.1462,0,-0.1121,-0.1153,-0.1162,-0.1196,-0.1216,-0.1236,-0.1269,-0.1307,-0.1342,-0.1379,-0.1452,-0.1471,-0.152,-0.1516,-0.1515,-0.1559,-0.1545,-0.1524,-0.1482,-0.1533,-0.1523,-0.1529,-0.146,-0.146,-0.1461,-0.1461,0,0,-0.1102,-0.1163,-0.1168,-0.1195,-0.1232,-0.1249,-0.1296,-0.1345,-0.138,-0.145,-0.1498,-0.1559,-0.1584,-0.1603,-0.1592,-0.1599,-0.1615,-0.1585,-0.1585,-0.1546,-0.1622,-0.1489,-0.1483,-0.1587,-0.1589,-0.1591,-0.1583,0,-0.1109,-0.1159,-0.1183,-0.1228,-0.1253,-0.1284,-0.1325,-0.1378,-0.1425,-0.1481,-0.1528,-0.1582,-0.1607,-0.1614,-0.1636,-0.1635,-0.1639,-0.162,-0.1611,-0.1612,-0.1459,-0.1488,-0.1597,-0.1588,-0.159,-0.1591,-0.1591,0,-0.1107,-0.1147,-0.1196,-0.1256,-0.1267,-0.1297,-0.1353,-0.1394,-0.147,-0.1508,-0.1576,-0.1618,-0.1675,-0.1666,-0.1718,-0.1703,-0.169,-0.1677,-0.1674,-0.1581,-0.1492,-0.1542,-0.1603,-0.1602,-0.1601,-0.16,-0.16,0,-0.1083,-0.115,-0.1193,-0.1215,-0.1284,-0.1314,-0.1346,-0.1414,-0.1447,-0.1527,-0.1561,-0.1642,-0.1679,-0.1704,-0.1722,-0.1718,-0.1747,-0.1717,-0.1587,-0.1576,-0.1708,-0.1704,-0.1751,-0.1751,-0.1751,-0.1751,-0.1751,0,-0.1069,-0.1105,-0.1194,-0.1218,-0.1254,-0.1316,-0.1355,-0.1392,-0.1456,-0.1495,-0.1583,-0.1615,-0.1697,-0.1725,-0.1727,-0.1682,-0.1752,-0.162,-0.1574,-0.1693,-0.1687,-0.171,-0.1705,-0.1751,-0.1751,-0.1751,-0.1751,0,-0.1025,-0.1088,-0.1136,-0.1222,-0.1243,-0.127,-0.1329,-0.135,-0.1437,-0.148,-0.151,-0.1611,-0.1644,-0.1686,-0.1704,-0.1668,-0.1634,-0.1592,-0.1721,-0.1679,-0.146,-0.1454,-0.1453,-0.1448,-0.1444,-0.1441,-0.1438,0,-0.1001,-0.1032,-0.1115,-0.1128,-0.1164,-0.1216,-0.1229,-0.1312,-0.1338,-0.1464,-0.1472,-0.1547,-0.1598,-0.153,-0.1579,-0.1547,-0.1528,-0.1507,-0.1506,-0.1478,-0.1434,-0.1435,-0.1434,-0.1432,-0.1431,-0.143,-0.1429,0,-0.0947,-0.099,-0.1024,-0.1056,-0.1077,-0.1096,-0.1145,-0.1158,-0.1263,-0.1355,-0.1396,-0.1417,-0.1438,-0.145,-0.1426,-0.1409,-0.1523,-0.1467,-0.1475,-0.1474,-0.1453,-0.1413,-0.1417,-0.1416,-0.1418,-0.1419,-0.142,0,-0.0893,-0.0895,-0.0946,-0.0958,-0.0984,-0.0982,-0.1017,-0.1059,-0.1098,-0.1255,-0.126,-0.1341,-0.1425,-0.1376,-0.1359,-0.1323,-0.1306,-0.1275,-0.1293,-0.1309,-0.1263,-0.1216,-0.1081,0,0,0,0,0,-0.0831,-0.0829,-0.084,-0.0852,-0.0877,-0.0893,-0.0958,-0.1009,-0.1126,-0.1111,-0.1188,-0.12,-0.1199,-0.1239,-0.1167,-0.1276,-0.1299,-0.1188,-0.1271,-0.1341,-0.1357,-0.1315,0,0,0,0,0,0,-0.0791,-0.0803,-0.081,-0.0768,-0.0758,-0.0771,-0.081,-0.0886,-0.0898,-0.1026,-0.1024,-0.1119,-0.1121,-0.1212,-0.1141,-0.1147,-0.1173,-0.1232,-0.1229,-0.1333,-0.1347,-0.1359,-0.1322,0,0,0,0,0]},{"header":{"parameterUnit":"m.s-1","parameterCategory":2,"la1":30.2991,"la2":30.254,"lo1":-89.0895,"lo2":-89.0444,"dy":0.0017,"dx":0.0017,"nx":28,"ny":28,"refTime":"2023-08-23T21:00:00:Z","depth":"4","parameterNumber":3,"parameterNumberName":"V-component_of_CURRENTS"},"data":[0,0,0,0,0,0,0,0,0,0,0,0,0,0,0,0,0,0,0,0,0,0,0,0,0,0,0,0,0,0,0,0,0,0,0,0,0,0,0,0,0,0,0,0,0,0,0,0,0,0,0,0,0,0,0,0,0,0,-0.0428,-0.0428,0,-0.0432,-0.0432,-0.0432,-0.0411,-0.041,-0.041,-0.0409,-0.0356,-0.0355,-0.0354,0,0,0,0,0,0,0,0,0,0,0,0,0,-0.0414,-0.0414,-0.0428,-0.0428,-0.0428,-0.0432,-0.0432,-0.0432,-0.0411,-0.041,-0.041,-0.0409,-0.0356,-0.0355,-0.0354,0,0,0,0,0,0,0,0,0,0,0,0,0,-0.0418,-0.0414,-0.0428,-0.0418,-0.0418,-0.0432,-0.0432,-0.0432,-0.0411,-0.041,-0.0409,-0.0409,-0.0356,-0.0355,-0.0354,-0.0361,0,0,-0.0349,-0.0349,0,0,0,0,0,0,0,0,-0.0418,-0.0419,-0.042,-0.0419,-0.0418,-0.042,-0.0407,-0.0405,-0.0411,-0.0413,-0.0409,-0.0408,-0.0373,-0.037,-0.0373,-0.0359,-0.0357,-0.0349,-0.0348,-0.0348,-0.0347,0,0,0,0,0,0,0,-0.0418,-0.0419,-0.0429,-0.042,-0.0419,-0.0418,-0.0418,-0.0407,-0.0396,-0.0413,-0.0411,-0.0413,-0.0372,-0.0374,-0.0371,-0.0356,-0.0349,-0.0348,-0.0347,-0.0347,-0.0348,-0.0349,0,0,0,0,0,0,-0.0419,-0.0418,-0.0429,-0.0429,-0.0417,-0.0419,-0.0419,-0.042,-0.0397,-0.0394,-0.0414,-0.0412,-0.0377,-0.0373,-0.0369,-0.0394,-0.0348,-0.0346,-0.0346,-0.0348,-0.0349,-0.035,0,0,0,0,0,0,-0.0419,-0.042,-0.0428,-0.0424,-0.0425,-0.042,-0.0422,-0.0421,-0.0425,-0.0399,-0.0394,-0.0419,-0.0376,-0.0371,-0.0364,-0.039,-0.0346,-0.0345,-0.0347,-0.0348,-0.0349,-0.0432,0,0,0,0,0,0,-0.0418,-0.042,-0.0427,-0.0424,-0.0425,-0.0446,-0.0423,-0.0421,-0.0427,-0.0425,-0.0402,-0.0396,-0.0375,-0.0366,-0.0362,-0.0388,-0.0344,-0.0345,-0.0347,-0.0349,-0.0428,-0.0436,-0.0442,0,0,0,0,0,-0.0418,-0.043,-0.0427,-0.0429,-0.0434,-0.0447,-0.0448,-0.0441,-0.0428,-0.0439,-0.0419,-0.0397,-0.0374,-0.0366,-0.0361,-0.0387,-0.0345,-0.0347,-0.0349,-0.0424,-0.0434,-0.0442,0,0,0,0,0,0,-0.0429,-0.0429,-0.0426,-0.0438,-0.0446,-0.0444,-0.0453,-0.0447,-0.0442,-0.0437,-0.0407,-0.04,-0.0404,-0.0382,-0.0374,-0.0391,-0.0356,-0.0358,-0.0416,-0.0424,-0.0432,-0.0388,-0.0342,0,0,0,0,0,-0.0435,-0.0443,-0.0445,-0.0458,-0.0462,-0.0459,-0.0465,-0.0462,-0.0455,-0.0452,-0.0436,-0.0418,-0.041,-0.0406,-0.0393,-0.0403,-0.0331,-0.0416,-0.0423,-0.043,-0.0391,-0.0319,-0.0315,-0.0356,-0.0356,-0.0356,0,0,-0.0442,-0.0445,-0.0449,-0.0461,-0.0464,-0.0478,-0.046,-0.0474,-0.0479,-0.0446,-0.0449,-0.0442,-0.0417,-0.0429,-0.0429,-0.0414,-0.0384,-0.0432,-0.0438,-0.0394,-0.032,-0.0316,-0.0312,-0.0357,-0.0357,-0.0357,0,0,-0.0463,-0.0465,-0.0479,-0.0487,-0.0498,-0.0499,-0.0505,-0.0508,-0.0503,-0.0512,-0.0489,-0.0489,-0.0483,-0.047,-0.0461,-0.0497,-0.0424,-0.0508,-0.0512,-0.0445,-0.044,-0.0435,-0.0352,-0.0339,-0.0515,-0.0515,-0.0515,0,-0.0472,-0.0488,-0.0487,-0.0503,-0.0512,-0.0509,-0.0527,-0.0525,-0.0526,-0.0515,-0.052,-0.0496,-0.0496,-0.0483,-0.0505,-0.0512,-0.0448,-0.0488,-0.0452,-0.0445,-0.0438,-0.0355,-0.0339,-0.0519,-0.0519,-0.0518,-0.0518,0,-0.0501,-0.0515,-0.0526,-0.0542,-0.0554,-0.0571,-0.0569,-0.0577,-0.0575,-0.0561,-0.0549,-0.0543,-0.0519,-0.0544,-0.0538,-0.0504,-0.0466,-0.0469,-0.0427,-0.0439,-0.0351,-0.0332,-0.0525,-0.0524,-0.0522,-0.0521,0,0,-0.0517,-0.054,-0.0545,-0.0559,-0.0575,-0.059,-0.0598,-0.0597,-0.0591,-0.0584,-0.0565,-0.057,-0.0546,-0.0532,-0.0531,-0.0487,-0.0418,-0.0461,-0.0455,-0.0372,-0.0241,-0.0279,-0.0262,-0.0412,-0.041,-0.0407,-0.0204,0,-0.054,-0.0576,-0.0581,-0.0617,-0.0634,-0.0633,-0.0642,-0.0636,-0.0626,-0.0607,-0.0571,-0.0558,-0.0546,-0.0552,-0.0499,-0.0435,-0.037,-0.047,-0.0245,-0.0237,-0.0264,-0.0243,-0.0398,-0.019,-0.0185,-0.0182,-0.018,0,-0.0568,-0.0587,-0.0627,-0.065,-0.0658,-0.0678,-0.0687,-0.0693,-0.0653,-0.0641,-0.0593,-0.0555,-0.0486,-0.0494,-0.032,-0.0379,-0.03,-0.0247,-0.0238,-0.0219,-0.0241,-0.0171,-0.0146,-0.0148,-0.0151,-0.0153,-0.0155,0,-0.0586,-0.0619,-0.0654,-0.0664,-0.069,-0.0705,-0.0717,-0.0701,-0.0698,-0.0653,-0.0632,-0.053,-0.048,-0.0357,-0.0244,-0.0268,-0.0048,-0.0072,-0.0015,-0.0016,-0.0005,-0.0012,0.0071,0.0071,0.0071,0.007,0.007,0,-0.0608,-0.0636,-0.0666,-0.0688,-0.0725,-0.0731,-0.0755,-0.0753,-0.0728,-0.0705,-0.0642,-0.0585,-0.0441,-0.0309,-0.0208,-0.0042,-0.0003,0.0021,0.004,-0.0049,-0.0063,0.0008,-0.0002,0.0078,0.0076,0.0075,0.0073,0,-0.0625,-0.0647,-0.069,-0.0724,-0.074,-0.0768,-0.0792,-0.0795,-0.077,-0.0735,-0.0716,-0.0589,-0.0413,-0.0269,-0.0065,0.0001,0.0145,0.0187,0.0108,0.0114,0.0132,0.0115,0.0301,0.0302,0.0302,0.0303,0.0303,0,-0.0635,-0.0661,-0.0722,-0.0752,-0.0774,-0.0809,-0.083,-0.0826,-0.0815,-0.0727,-0.0697,-0.0534,-0.0436,-0.0137,-0.0014,0.0202,0.0202,0.0284,0.0194,0.0159,0.016,0.0142,0.0125,0.0303,0.0304,0.0304,0.0304,0,-0.0649,-0.068,-0.0714,-0.0776,-0.0816,-0.0849,-0.0866,-0.0854,-0.0822,-0.0798,-0.0646,-0.0506,-0.0309,-0.0116,0.0041,0.0182,0.0231,0.0288,0.0288,0.0205,0.0164,0.016,0.0143,0.0305,0.0305,0.0305,0.0305,0,-0.066,-0.0689,-0.074,-0.0788,-0.0842,-0.0862,-0.0871,-0.0826,-0.0805,-0.0702,-0.0642,-0.0449,-0.033,-0.0123,0.0024,0.0153,0.0172,0.0191,0.0196,0.0195,0.0068,-0.0006,0.0132,0,0,0,0,0,-0.0659,-0.0694,-0.0744,-0.0798,-0.0847,-0.0874,-0.0883,-0.0875,-0.083,-0.0724,-0.0682,-0.0503,-0.0264,-0.0152,-0.0022,0.0003,0.017,0.0153,0.0187,0.0313,0.0312,0.0172,0,0,0,0,0,0,-0.0665,-0.0716,-0.0738,-0.0786,-0.0823,-0.0867,-0.0872,-0.0844,-0.0772,-0.0708,-0.0567,-0.0499,-0.0259,-0.0333,-0.0025,0.0012,0.0043,0.0266,0.0268,0.0314,0.0313,0.0311,0.0167,0,0,0,0,0]}]]